Wind_Speed
14 13 13 12 11 11 10 10 9 8 8 7 7 7 6 6 6 6 5 5 6 6 5 5 5 4 4 4 3 2 2 1 1 1 1 1 1 1 1 1 1 1 1 1 1 1 1 2 3 4 3 3 5 6 6 7 8 8 7 6 6 6 7 10 12 12 11 14 16 15 15 17 18 16 15 16 18 19 20 19 19 22 21 22 24 22 23 25
14 13 13 12 11 10 10 9 8 8 7 7 6 6 6 5 5 5 4 4 5 6 5 5 5 4 3 2 1 0 0 0 1 1 2 2 2 2 2 2 2 2 2 2 2 2 2 3 3 3 3 4 6 7 7 8 9 8 7 3 6 10 11 14 13 12 12 15 16 16 16 17 18 18 17 17 19 21 22 21 21 23 22 23 25 22 22 23
13 12 12 11 10 9 9 8 7 7 6 6 6 5 5 5 4 4 4 4 5 5 6 5 5 4 2 1 0 1 1 2 3 2 2 2 2 2 3 3 3 4 3 3 3 3 3 3 4 4 4 5 6 8 9 10 9 9 7 3 7 11 12 13 12 13 13 15 17 17 17 18 19 19 18 19 19 20 22 25 25 23 21 22 23 20 19 20
12 12 12 10 9 8 7 7 6 6 5 5 5 4 4 4 3 3 3 4 4 5 5 5 4 3 2 0 1 2 4 4 3 3 4 3 3 4 3 4 4 5 4 4 4 4 4 4 4 5 5 5 6 8 9 10 10 10 9 8 8 11 13 13 13 14 14 16 18 18 18 19 19 19 19 20 20 19 22 26 25 24 22 22 22 20 16 15
11 11 11 10 9 7 6 5 5 5 5 4 4 3 3 3 2 3 3 3 4 4 4 4 3 2 1 2 3 4 5 5 4 5 6 5 5 5 5 5 5 5 5 5 6 6 5 5 5 5 5 6 8 10 10 10 11 11 11 9 10 12 14 14 14 15 16 17 18 19 19 20 20 20 19 20 20 18 20 23 22 22 22 21 21 22 19 13
8 8 9 9 8 7 5 4 4 4 4 3 2 2 2 1 1 2 2 2 3 3 3 2 1 1 1 3 4 5 6 7 7 6 6 6 6 5 5 6 6 6 6 7 7 7 7 6 6 6 6 6 8 10 11 11 11 13 11 10 11 13 15 15 15 15 16 17 18 19 20 21 22 20 20 20 18 16 18 21 20 20 21 20 19 20 22 17
6 6 6 6 7 7 6 4 3 3 2 2 1 1 1 1 1 1 1 1 2 3 3 2 1 1 3 4 6 6 7 7 6 5 4 6 6 6 6 6 6 7 7 8 8 8 8 7 7 7 7 8 9 11 11 11 12 13 11 11 13 14 15 15 15 16 17 17 19 20 21 22 23 21 19 17 16 17 19 21 21 21 20 20 19 18 21 20
3 4 5 5 5 6 6 6 4 2 1 1 1 1 1 1 1 1 1 1 2 2 2 1 1 3 4 6 7 7 6 6 6 5 5 5 6 6 7 7 7 7 7 8 8 9 9 9 8 8 8 9 11 11 11 12 12 11 11 13 14 15 15 15 15 16 17 18 19 20 21 22 23 22 17 14 17 20 21 21 22 22 21 20 19 19 19 20
1 2 3 4 4 4 5 6 5 2 1 1 0 1 1 1 1 1 2 2 3 2 1 2 3 4 5 6 7 7 6 7 7 6 5 6 6 6 7 7 7 7 7 8 9 10 10 10 10 10 10 11 11 10 11 13 12 12 14 15 15 15 14 15 15 16 18 19 19 20 21 23 23 20 15 14 19 22 22 23 24 24 22 20 19 19 19 19
5 4 3 3 3 4 4 5 5 4 2 2 2 2 1 1 2 2 3 4 3 2 3 3 3 4 5 6 7 8 8 7 7 6 6 6 6 6 7 7 8 7 8 9 10 11 11 11 11 11 11 11 10 11 12 12 12 14 16 15 15 15 15 15 15 17 20 20 21 22 21 23 22 18 17 19 21 23 26 27 27 25 23 20 19 18 18 18
8 8 7 5 4 5 4 4 4 3 3 3 3 3 2 1 2 3 5 5 4 3 3 3 3 5 6 7 8 9 8 7 7 7 7 6 6 7 7 8 8 9 9 10 10 11 12 11 12 12 11 11 12 13 12 12 14 15 15 16 15 14 15 15 15 19 21 21 23 24 21 21 23 21 22 23 22 24 28 29 29 26 22 19 17 17 17 18
8 9 9 7 6 6 5 4 3 3 3 4 4 4 3 3 2 4 6 6 5 4 4 4 5 6 6 7 8 8 8 8 7 7 8 8 7 7 8 9 9 10 11 11 11 12 12 12 12 12 12 12 13 13 12 14 16 16 16 16 16 17 17 16 18 21 22 21 23 25 22 21 24 26 26 26 25 26 28 29 30 25 19 16 16 16 16 16
6 7 8 8 6 6 5 4 4 3 3 4 5 4 4 4 3 4 6 7 6 5 5 6 7 7 7 8 9 8 8 8 8 8 8 8 8 8 8 9 10 11 11 11 11 12 12 12 12 13 13 13 14 14 14 16 17 17 16 14 16 19 18 18 21 23 22 21 23 25 23 22 25 28 28 27 27 27 27 28 29 25 19 16 15 15 14 12
3 5 6 6 5 5 4 4 4 4 4 5 5 5 4 4 4 4 5 6 6 5 6 7 8 8 8 9 9 8 8 8 8 8 8 8 8 8 9 9 10 10 11 11 11 12 12 12 13 13 13 14 15 15 16 17 16 16 14 12 15 16 16 20 22 23 23 22 22 24 24 23 24 27 30 30 28 27 27 25 25 23 19 17 16 13 11 9
2 3 6 4 4 4 3 3 4 4 5 6 6 6 5 5 5 5 5 5 5 5 6 7 8 8 9 9 9 9 8 8 8 8 8 9 8 9 9 10 10 11 11 11 12 12 13 13 14 14 14 15 16 16 17 18 16 13 11 11 13 14 17 23 23 23 25 24 23 23 24 24 23 26 31 32 31 29 28 25 22 20 17 17 15 10 9 10
1 1 3 1 3 3 3 3 3 4 4 5 6 6 6 5 5 5 5 5 5 5 5 6 7 8 9 8 9 8 8 8 8 8 8 9 9 10 10 10 11 11 12 13 13 13 14 15 15 15 16 17 17 17 17 17 13 8 10 12 14 16 19 23 23 23 25 25 25 25 26 25 23 26 30 31 32 31 30 27 21 17 15 14 12 9 10 11
1 1 1 3 5 5 5 4 4 4 4 5 6 6 6 5 5 5 5 5 5 6 6 6 7 8 8 7 8 8 8 8 8 9 9 10 10 11 11 12 13 13 13 14 14 13 15 15 16 17 18 18 18 17 16 14 10 10 14 18 20 19 19 23 24 24 25 25 25 26 28 27 23 24 27 28 29 30 29 24 17 15 15 12 10 10 11 12
1 1 2 4 6 6 6 5 5 5 5 5 5 5 5 5 5 5 5 6 6 7 7 7 7 7 7 7 8 8 9 9 10 10 11 11 12 13 14 14 14 15 16 17 15 15 16 17 17 19 18 17 17 17 16 15 16 19 20 23 24 22 22 23 23 24 26 26 25 25 28 29 25 24 24 25 26 26 22 17 14 14 13 10 10 11 11 12
1 2 3 5 6 7 7 6 6 5 5 5 6 6 5 4 5 5 5 6 7 7 7 6 7 7 7 8 9 10 11 11 11 12 12 13 14 15 16 16 16 17 18 19 19 18 19 19 19 19 16 15 16 18 19 20 21 22 22 24 24 25 26 24 23 25 25 26 26 26 29 30 27 24 23 25 24 17 14 13 13 12 10 9 10 11 11 12
3 4 5 6 7 8 7 6 5 4 4 5 5 6 5 5 5 5 5 6 7 7 7 8 8 9 10 10 11 12 13 13 12 13 14 15 16 16 17 17 18 19 19 18 19 20 20 20 21 20 17 16 18 21 23 24 23 22 23 24 25 27 28 23 21 24 24 26 28 28 29 30 28 24 23 24 17 9 10 12 11 10 10 10 11 11 11 11
5 5 5 5 6 7 6 6 4 3 4 5 5 5 6 6 6 6 6 7 7 8 8 8 9 10 11 12 12 13 13 14 14 14 15 16 17 19 18 18 19 19 19 18 19 20 20 22 21 19 18 18 22 25 25 24 23 23 24 25 26 26 25 22 20 22 23 26 29 29 29 30 27 23 22 18 9 6 11 12 11 11 11 11 11 11 11 10
5 4 4 5 5 6 6 5 3 3 4 5 6 7 7 6 6 7 8 8 7 8 8 8 9 10 11 12 13 13 14 15 15 14 16 17 18 18 18 18 18 18 20 20 20 21 20 21 19 17 19 23 26 25 24 23 23 24 24 25 26 24 21 20 20 22 23 27 31 28 27 30 25 18 16 10 7 8 12 11 11 11 11 11 11 10 10 10
3 2 3 4 5 5 5 5 4 4 4 5 6 7 7 7 7 8 9 9 8 8 9 9 9 10 11 12 13 14 14 15 16 15 16 17 17 17 17 17 17 19 20 20 21 21 20 20 20 21 24 26 26 23 23 25 26 26 25 24 25 22 20 21 22 24 25 29 30 24 28 30 18 11 11 6 8 11 11 11 12 11 10 10 9 8 9 14
2 2 3 3 4 5 4 4 5 5 5 6 6 7 7 8 8 8 10 11 10 8 9 9 9 10 11 11 12 13 13 14 15 14 14 15 16 16 16 17 18 19 20 20 21 21 22 23 24 24 24 23 24 25 25 27 29 27 24 23 23 22 22 23 24 26 29 29 22 19 26 22 6 6 9 9 11 12 10 11 12 10 9 8 7 8 13 18
2 3 4 4 4 4 4 5 5 5 6 7 7 8 8 8 9 10 11 12 10 8 7 8 8 9 9 9 10 11 12 12 11 12 13 14 14 15 18 18 19 20 21 22 22 23 24 24 23 22 23 23 25 27 27 27 28 26 21 20 21 21 22 23 24 27 28 22 15 16 17 8 3 8 13 15 14 10 9 10 11 11 8 7 7 11 17 19
3 4 4 4 3 3 4 5 5 6 7 7 8 8 9 9 10 11 13 11 9 7 6 5 5 6 7 7 8 10 10 10 10 13 14 14 15 18 20 20 21 21 21 22 23 23 23 22 22 23 24 25 26 27 26 25 25 23 21 20 20 21 22 23 24 24 23 17 18 20 12 9 14 14 15 17 13 8 7 8 9 9 7 7 10 15 18 17
4 4 3 3 3 4 5 6 7 7 7 8 8 9 9 10 10 12 12 8 5 5 4 4 4 4 6 6 7 10 12 13 14 15 15 17 19 20 20 20 20 20 21 22 23 22 22 23 23 24 24 24 25 25 24 23 22 22 22 22 22 22 21 22 23 24 24 22 23 21 12 14 17 12 10 12 7 3 3 4 5 4 4 10 14 16 17 16
6 5 4 3 4 4 5 6 6 7 8 8 8 9 9 9 10 10 7 3 2 4 4 4 4 5 5 5 8 12 14 16 17 16 18 19 19 19 18 18 19 21 21 21 23 24 24 24 21 21 22 23 24 24 23 22 22 22 24 23 22 20 20 22 24 24 21 16 17 16 8 9 10 8 8 4 5 3 3 7 10 12 15 18 17 15 15 15
8 6 5 5 5 5 6 6 6 7 7 8 9 9 10 10 9 6 3 2 3 6 6 5 5 6 6 8 12 15 16 18 17 17 18 18 17 17 18 20 21 22 20 20 24 23 21 19 18 20 22 22 22 21 21 22 22 23 23 21 19 20 22 21 20 18 11 7 14 14 8 7 8 8 5 7 9 8 11 15 19 20 20 20 18 16 15 17
9 7 5 6 6 6 6 6 6 6 7 9 10 11 11 10 7 4 1 2 6 8 8 7 7 8 10 13 16 18 19 19 17 17 16 16 17 18 20 22 21 21 20 20 19 17 17 18 19 21 20 20 19 19 19 19 19 19 19 19 20 21 18 16 14 10 4 4 9 9 10 6 5 1 8 10 9 9 11 16 21 22 22 20 18 18 18 20
8 7 6 6 6 6 6 6 6 6 7 9 11 13 13 10 6 3 1 4 9 8 7 7 9 12 15 18 19 19 19 17 16 16 16 17 19 20 20 20 19 22 21 16 14 16 18 18 19 18 16 16 16 16 16 16 17 16 15 17 19 16 11 8 7 3 1 3 5 8 6 5 5 3 5 9 11 12 13 15 20 22 21 18 17 19 21 24
7 6 6 7 6 6 6 6 6 7 8 10 12 14 14 9 4 2 4 8 8 7 9 12 15 17 19 20 20 18 17 15 16 17 18 19 19 19 19 18 19 21 16 12 17 20 20 17 15 12 11 13 14 15 16 16 16 15 14 15 12 9 7 3 2 2 3 2 4 5 4 7 12 12 13 16 15 15 15 16 18 20 17 16 17 20 24 28
5 6 7 8 8 8 7 7 7 8 9 11 13 14 12 7 3 4 9 10 9 11 15 17 18 19 20 19 17 15 15 16 17 18 20 20 18 18 20 19 18 15 12 17 21 17 15 14 10 7 11 12 11 15 18 17 16 15 15 14 8 3 3 3 3 4 4 1 2 8 10 11 16 13 14 17 15 14 15 14 15 16 16 17 19 23 27 31
4 5 7 9 9 10 9 9 9 9 11 12 13 13 10 5 5 8 12 13 12 14 16 18 20 20 18 16 15 15 17 18 19 20 20 18 18 19 18 16 13 12 15 18 15 10 11 12 8 9 12 12 14 20 21 20 19 17 13 10 7 6 4 4 2 3 6 8 10 11 8 9 11 8 12 14 12 12 11 10 11 14 16 19 22 26 30 35
6 7 8 9 11 11 11 11 11 11 12 12 14 13 7 5 8 12 14 15 15 16 17 19 20 18 16 14 14 17 20 21 21 21 20 19 19 17 14 12 11 14 17 14 11 11 11 9 8 12 14 17 21 22 20 18 15 12 10 7 8 9 9 9 10 13 15 13 10 9 9 12 13 10 11 10 9 9 8 9 11 16 19 22 26 30 34 38
7 8 9 10 11 12 12 12 12 12 12 13 13 11 7 8 12 14 14 15 16 18 20 19 17 16 14 13 15 18 21 21 22 21 20 19 18 14 11 11 14 16 15 12 12 12 10 11 14 18 21 21 20 18 17 17 13 11 12 10 10 11 12 13 14 14 12 8 7 9 9 9 8 8 9 7 6 7 8 11 15 19 23 26 30 34 39 42
8 8 8 10 11 12 12 12 12 12 12 12 12 10 9 11 12 13 14 16 17 19 19 18 16 14 13 14 18 20 21 20 19 20 20 17 14 12 11 14 17 16 12 12 13 12 14 21 23 21 20 18 16 18 20 18 16 15 14 12 11 11 11 10 7 5 4 4 5 8 9 9 9 8 8 6 5 10 13 16 20 24 27 31 35 39 44 46
8 8 9 10 11 12 12 12 11 11 11 11 12 11 11 12 12 13 15 16 17 17 17 16 14 13 14 17 21 21 20 19 18 19 19 13 9 11 15 16 15 12 12 16 17 16 18 22 23 18 15 16 19 23 22 17 14 13 13 13 12 9 7 6 4 3 3 3 4 7 10 15 16 10 7 4 11 13 16 21 25 30 33 35 39 43 47 49
8 9 9 10 12 13 13 12 11 12 12 11 11 11 11 13 14 14 15 16 16 16 15 14 14 15 16 18 20 20 20 19 18 18 16 11 10 14 16 14 12 13 17 20 19 19 18 14 16 18 17 21 24 21 17 15 14 14 13 13 11 9 8 7 7 6 4 3 4 5 6 8 8 6 4 10 14 15 20 25 30 33 35 37 43 48 50 49
9 9 10 10 12 13 13 12 12 12 11 11 10 10 12 13 14 14 15 15 15 15 15 15 15 16 17 18 18 20 19 18 19 18 14 12 14 15 13 12 15 19 21 20 19 21 18 9 14 22 23 25 24 19 17 18 17 15 12 11 11 9 7 9 13 14 10 6 3 3 3 1 2 5 12 14 15 19 24 27 30 33 37 42 47 50 50 49
9 10 10 11 12 12 13 13 12 11 10 10 10 10 11 12 13 13 14 14 14 14 14 15 14 15 16 17 18 19 19 18 19 17 13 13 15 14 13 16 20 22 20 21 20 20 16 12 19 27 27 25 22 20 22 22 20 18 15 13 11 7 7 8 8 10 11 9 5 5 4 6 10 15 14 12 16 21 24 27 33 38 42 46 47 48 50 49
10 10 10 11 12 12 12 12 11 11 11 11 11 11 12 13 13 13 13 13 14 14 14 13 14 14 15 15 16 17 19 19 18 14 12 15 16 15 17 20 22 21 21 21 20 18 18 18 22 26 24 23 22 21 22 23 22 19 14 11 10 11 12 9 6 7 9 10 12 11 8 12 16 13 8 12 21 25 28 32 38 42 44 45 47 50 50 49
9 9 10 11 11 11 12 12 11 11 11 12 12 13 13 13 13 13 13 13 13 13 13 13 14 14 14 15 15 16 19 19 15 13 15 18 18 18 20 21 21 21 22 21 20 20 19 15 18 23 23 23 22 18 17 16 14 10 8 10 16 18 18 16 15 16 16 15 16 11 6 7 5 6 8 20 27 30 35 39 42 44 46 47 51 51 50 52
8 8 9 9 10 11 12 11 11 11 12 12 12 13 12 12 12 12 12 13 13 12 13 14 14 14 14 14 15 16 18 16 14 17 18 19 20 20 20 21 21 21 22 22 22 21 18 12 15 19 17 15 13 8 5 6 7 11 14 17 20 22 22 21 19 17 15 14 13 9 6 7 8 11 21 27 30 35 40 42 45 47 50 52 52 51 51 55
8 8 8 9 11 11 10 10 11 11 12 12 11 11 11 11 11 11 12 12 12 13 14 14 13 13 14 15 16 17 17 15 16 19 20 20 21 20 19 21 22 22 22 22 22 21 20 17 16 13 8 7 8 6 7 12 18 23 24 23 23 24 25 23 17 11 9 8 10 13 13 16 18 22 29 32 35 40 41 43 48 51 53 54 51 51 54 53
8 9 9 10 11 10 9 10 11 11 11 11 11 10 11 11 11 11 12 12 12 13 14 13 14 15 16 17 18 18 18 18 19 20 20 21 21 20 21 23 23 23 23 21 20 19 19 20 19 17 16 17 20 20 21 23 27 28 27 26 26 26 25 22 16 12 12 13 15 16 16 22 26 28 34 38 39 39 41 46 51 53 53 52 51 54 53 47
9 10 10 11 10 8 9 11 10 10 11 11 10 10 11 11 11 12 12 12 13 14 13 14 15 16 17 19 19 19 20 21 21 22 22 22 23 24 25 24 24 24 22 20 19 17 19 22 23 22 23 24 25 26 25 24 26 27 25 24 24 24 24 21 19 16 14 14 16 15 16 24 30 34 37 38 37 38 43 49 52 51 50 51 54 53 48 42
9 10 10 10 9 9 10 10 10 10 10 10 10 10 10 11 12 13 13 13 14 14 14 15 16 17 18 19 20 20 21 22 22 23 24 24 25 27 27 27 26 25 23 22 22 21 21 25 25 24 24 24 24 25 24 21 20 21 20 20 21 22 22 20 19 17 13 11 15 20 23 28 32 33 32 32 35 41 47 50 50 49 50 54 53 47 42 40
9 9 9 10 10 10 10 10 10 10 10 9 10 10 11 12 13 13 14 14 14 14 15 16 17 17 18 19 20 21 22 23 24 24 25 26 27 29 30 29 27 26 26 26 26 24 23 24 25 23 24 25 24 24 22 19 18 20 21 20 18 18 18 17 15 14 13 14 18 23 29 31 28 24 28 35 41 46 49 49 48 50 53 54 49 43 40 41
8 8 9 9 9 9 9 9 10 9 9 10 10 11 12 13 13 14 14 14 15 15 16 16 17 17 18 19 21 21 22 23 24 25 27 28 29 30 30 29 28 28 29 28 27 24 21 21 22 21 24 27 24 20 20 19 20 22 21 19 16 15 14 12 13 14 16 19 22 26 31 31 27 29 38 45 48 50 49 48 50 53 53 49 44 41 40 43
8 9 9 9 9 8 9 9 9 10 10 11 12 12 13 13 14 14 13 14 15 16 17 18 18 19 20 21 22 23 24 24 24 26 28 29 30 29 28 28 28 28 28 27 25 21 19 20 21 19 21 24 21 17 20 23 22 20 18 14 11 11 9 10 13 15 17 22 27 29 31 32 36 43 48 47 48 48 47 48 53 54 48 42 40 40 43 49
8 8 8 8 8 8 9 9 10 10 11 12 12 13 13 13 14 14 14 14 15 17 18 19 20 21 22 24 25 25 25 25 25 27 29 29 29 28 27 27 27 26 25 23 20 18 18 19 19 16 15 20 20 19 22 24 19 12 10 8 8 11 13 14 16 17 19 24 29 32 36 39 44 47 47 47 47 45 45 51 54 48 42 40 39 41 47 53
Wind_Direction
83 85 87 90 95 99 101 102 102 101 98 95 92 94 97 100 101 106 113 125 134 135 132 126 124 122 119 120 127 141 153 156 153 108 42 21 360 7 8 348 352 341 332 325 341 353 355 13 31 33 11 6 18 13 9 7 7 4 19 18 322 270 277 292 290 300 297 293 306 310 309 310 313 321 322 317 315 313 313 313 308 307 309 301 304 309 300 300
81 83 86 90 95 99 101 102 102 100 98 95 94 96 100 105 108 113 121 134 142 143 142 142 140 135 126 125 127 201 229 288 303 355 8 344 331 334 329 324 325 318 305 305 320 323 341 3 13 13 354 360 6 360 355 357 357 353 15 21 272 265 280 295 301 306 301 303 312 314 313 313 316 323 325 321 317 318 315 310 307 308 310 302 303 306 299 298
79 80 83 87 92 96 98 99 99 98 96 95 96 101 107 116 121 120 129 142 149 152 155 156 151 145 139 139 124 308 315 308 301 321 334 321 316 318 319 323 325 319 313 314 312 324 348 355 352 358 1 7 358 346 345 347 345 341 344 301 271 281 291 302 310 312 312 313 315 317 318 316 319 324 325 322 321 322 313 309 312 315 313 304 303 301 295 293
78 78 79 82 89 95 98 98 97 95 92 93 97 105 116 123 124 119 127 145 156 162 165 162 155 149 142 275 313 314 313 301 294 325 329 317 320 322 322 325 326 323 321 323 323 330 343 344 345 358 3 1 345 337 340 340 335 330 325 310 300 302 307 315 317 317 319 319 319 321 321 320 322 325 325 322 322 320 310 312 320 321 317 311 309 304 296 290
78 78 78 78 82 90 100 102 98 95 91 91 96 110 127 126 120 112 119 144 160 168 173 167 160 156 162 302 308 312 313 305 300 318 322 322 326 327 329 331 327 325 325 326 329 330 337 344 344 354 3 350 335 334 335 333 327 323 322 316 313 314 317 320 319 319 321 322 322 322 323 323 323 325 325 321 320 317 311 316 320 317 314 313 310 303 301 293
74 74 76 77 74 75 84 98 104 104 98 91 94 112 132 128 118 107 121 158 169 179 183 180 180 203 300 309 309 312 311 310 312 313 315 324 332 335 337 335 329 326 328 328 329 333 337 340 342 351 351 331 324 328 328 326 322 319 319 317 317 320 321 321 320 321 323 325 325 324 325 324 323 326 325 321 322 321 316 318 318 315 311 309 304 295 296 298
66 63 65 68 62 55 55 63 87 106 108 101 104 128 149 142 134 119 141 193 189 196 200 198 240 296 311 312 310 313 311 312 321 325 324 330 336 342 344 339 333 332 331 330 332 335 337 338 344 346 334 322 322 325 322 319 319 317 317 319 321 323 322 321 322 323 326 330 328 325 328 326 324 326 327 324 326 325 321 320 321 318 312 306 299 289 289 295
54 48 46 50 42 36 36 39 47 69 94 107 124 194 196 172 168 159 172 204 191 185 188 202 285 301 312 317 313 314 313 316 325 328 330 335 340 344 344 338 334 336 332 333 338 338 339 340 342 337 328 325 322 322 321 319 320 319 320 322 323 324 324 323 325 327 329 333 330 328 330 327 325 327 329 330 329 326 322 321 322 320 315 306 297 289 287 292
296 358 18 31 22 13 16 22 26 19 17 27 285 237 216 194 188 196 201 203 192 182 224 258 287 297 310 315 312 315 316 317 319 322 331 338 342 340 338 337 333 334 334 338 343 342 341 342 342 334 327 323 321 322 322 322 323 324 323 324 325 324 324 325 327 328 331 335 331 330 333 328 328 331 329 332 331 325 323 322 323 323 318 308 297 290 288 290
256 269 298 340 352 348 350 3 11 1 349 340 310 276 257 224 207 218 222 217 218 257 281 275 284 298 308 309 308 313 316 317 318 321 331 337 339 337 336 334 330 333 340 344 346 344 342 341 339 334 328 325 325 325 324 325 326 325 323 324 324 324 325 326 327 330 333 337 331 331 335 329 330 334 325 331 334 327 323 322 322 323 318 308 297 288 287 289
254 257 271 292 320 328 324 335 349 346 339 329 313 294 281 261 235 232 235 233 239 273 286 271 283 299 304 306 307 312 317 321 323 323 329 334 333 336 339 334 333 340 346 347 345 344 342 339 338 336 331 327 328 328 328 328 326 325 323 321 321 323 326 325 326 331 334 338 332 330 334 331 330 331 326 332 335 327 322 320 320 322 317 305 295 286 285 288
259 254 261 271 301 322 313 312 324 330 327 315 311 309 302 291 265 250 248 244 249 274 282 271 286 300 301 305 307 311 317 320 324 324 324 327 328 334 339 339 342 345 347 346 345 346 343 340 339 337 332 329 331 332 330 330 328 327 322 319 320 322 326 326 329 332 333 336 333 329 333 335 332 329 328 333 332 324 320 317 317 318 310 297 289 283 282 284
270 251 254 260 285 319 313 301 308 318 317 305 305 309 310 303 286 270 259 254 257 274 279 274 285 297 302 308 308 307 313 320 325 325 323 325 331 337 338 341 345 344 345 345 343 343 341 341 340 336 333 329 329 330 329 328 325 323 321 319 325 329 327 324 327 327 328 332 332 331 332 335 333 326 326 330 326 320 317 315 315 313 305 291 284 281 279 277
290 243 234 244 273 306 312 302 307 315 316 309 304 300 301 300 291 284 272 265 266 274 277 278 285 293 301 310 310 306 311 319 323 321 321 325 332 339 341 342 342 340 341 340 338 339 339 338 336 334 333 329 328 328 325 324 323 321 322 326 329 330 318 313 320 322 323 329 331 330 327 331 333 325 324 327 323 317 313 314 313 309 303 293 286 280 272 262
334 242 213 222 276 294 304 304 308 312 314 312 306 297 291 291 288 285 282 280 281 282 280 283 289 292 300 308 306 305 311 315 319 319 320 326 333 336 339 342 340 337 336 334 333 333 334 333 331 331 329 327 326 324 322 324 325 319 323 332 326 317 307 308 315 319 320 324 327 326 322 326 331 324 324 324 319 315 313 316 313 303 298 293 289 272 250 244
321 258 211 243 328 332 340 336 323 311 306 305 301 295 288 286 287 283 286 289 292 289 280 287 296 298 303 306 301 302 308 311 315 319 321 327 332 333 335 337 336 334 331 330 331 330 330 328 326 326 325 324 323 321 325 329 328 321 321 320 312 307 305 307 312 315 316 319 323 323 319 323 328 325 324 320 316 314 314 316 310 299 296 290 279 249 236 241
243 236 290 8 11 7 3 359 346 326 312 304 299 297 292 290 286 282 287 290 293 287 279 287 294 298 301 299 299 302 304 307 310 316 320 323 326 329 330 330 330 329 327 326 326 325 324 323 323 324 322 320 321 324 330 328 313 304 304 303 305 305 302 306 309 310 312 315 320 320 316 319 325 324 323 319 313 310 311 312 304 296 296 283 254 234 236 242
204 235 310 350 357 353 350 352 347 335 324 316 310 306 302 301 292 287 291 290 290 284 280 286 290 296 300 294 298 304 305 306 307 310 314 318 320 322 323 323 324 324 322 320 319 319 320 321 322 322 321 320 320 321 320 313 302 301 300 302 306 304 302 308 306 304 309 312 318 320 315 317 323 324 321 312 306 304 304 303 299 296 288 265 238 235 239 240
316 287 298 318 332 335 333 332 331 329 330 328 327 325 322 319 307 299 299 292 288 286 282 285 288 293 297 294 297 300 304 306 305 305 309 313 315 317 319 319 319 319 319 320 318 319 320 319 318 317 315 310 308 309 308 306 304 301 300 303 306 305 306 312 306 303 310 311 314 320 316 316 323 325 316 304 301 300 296 293 291 284 268 247 239 241 239 239
310 308 308 311 322 331 327 319 317 323 336 339 336 335 339 339 325 313 308 299 293 290 285 283 286 288 289 293 296 297 300 303 303 304 306 309 311 313 315 314 314 314 315 319 318 316 315 312 311 311 306 299 300 305 306 305 303 299 300 303 305 306 309 313 305 302 310 308 312 320 315 315 323 321 307 299 298 291 292 295 282 263 252 247 243 240 238 240
303 308 319 326 329 334 330 323 318 322 343 349 344 342 350 352 338 324 316 309 302 297 291 287 287 286 288 292 295 296 297 298 300 303 303 306 309 310 312 311 311 312 315 318 314 310 309 306 306 307 305 301 302 305 304 302 301 299 300 303 305 307 309 309 299 299 306 305 311 319 312 314 325 314 294 289 283 285 296 289 262 248 246 244 242 239 240 243
308 312 333 344 338 336 340 339 331 323 341 353 353 352 355 356 343 328 320 312 305 299 295 292 288 286 288 290 292 295 297 296 297 300 301 305 308 309 310 311 311 312 313 313 309 307 306 303 304 304 301 300 301 303 302 302 302 301 302 303 304 307 306 302 299 300 306 307 314 319 310 317 325 299 276 269 266 295 301 277 250 243 243 245 249 249 248 251
318 339 356 351 347 349 352 358 4 359 356 357 356 356 355 351 342 330 321 313 305 296 291 290 288 286 286 287 291 294 296 297 298 300 302 305 308 308 309 310 309 308 307 307 307 307 304 299 298 298 298 300 301 301 303 303 303 302 303 303 303 303 298 296 301 303 306 310 316 317 311 320 325 273 250 239 271 299 297 267 247 240 247 258 267 265 258 259
355 8 360 354 357 5 11 22 28 23 12 4 359 358 352 346 339 327 321 316 306 294 287 285 283 283 284 287 292 294 297 301 302 306 309 309 311 309 309 309 307 305 305 306 306 303 300 299 300 301 301 303 302 302 305 305 304 304 304 302 300 299 296 297 302 304 308 313 316 317 315 321 327 255 266 262 275 290 280 258 247 244 257 275 283 270 265 267
6 9 4 2 5 16 32 37 31 25 16 4 356 351 345 340 335 326 324 320 308 297 290 285 282 282 286 293 296 298 303 305 307 313 315 314 313 311 310 309 307 306 306 306 303 301 301 302 303 304 304 303 302 303 305 304 303 303 300 297 295 296 297 299 303 306 311 315 314 315 318 318 272 288 292 278 268 265 261 254 245 247 270 293 278 259 266 272
3 11 3 2 15 30 41 34 23 21 9 351 344 343 337 333 331 326 325 318 303 299 297 290 290 288 295 306 304 306 313 315 315 317 317 315 314 311 309 307 306 305 306 305 303 302 304 305 306 306 305 305 303 303 305 304 302 300 298 298 296 296 296 300 305 307 307 306 303 304 298 273 284 298 290 272 258 247 246 238 245 269 300 293 262 255 262 267
357 7 3 7 24 34 38 29 18 9 353 342 341 338 331 330 329 328 327 314 290 303 307 293 299 298 301 313 315 320 325 322 318 318 317 315 314 311 309 309 309 306 309 309 303 304 306 307 308 307 305 305 304 305 306 305 300 296 300 303 300 298 299 304 306 302 299 299 301 299 278 265 284 303 290 259 233 249 257 209 231 259 227 226 239 250 258 265
352 358 1 6 16 19 22 19 8 355 344 345 345 339 337 333 328 331 332 309 298 331 328 311 313 306 297 307 318 323 324 322 320 318 316 315 314 314 313 312 309 308 311 307 301 304 307 307 308 308 307 307 306 308 308 306 300 297 303 305 302 303 307 308 303 297 300 301 298 294 258 242 273 294 288 237 163 164 174 169 186 195 200 211 225 239 253 270
354 355 355 358 4 3 2 5 359 350 347 348 347 345 345 340 334 337 326 281 322 336 329 319 314 305 297 303 312 316 318 319 319 317 317 317 317 318 315 312 309 309 310 306 304 307 308 308 310 310 311 310 308 307 305 303 300 302 305 305 306 310 311 307 299 298 305 284 283 280 219 207 293 290 239 162 147 164 175 180 191 202 210 216 225 238 257 277
356 356 355 352 354 353 351 356 354 348 348 348 348 346 344 344 340 333 273 279 321 322 317 316 310 305 305 307 311 315 318 320 320 319 319 319 319 318 316 314 312 311 313 311 308 309 309 310 311 313 313 310 308 307 305 304 305 306 307 310 315 318 313 299 294 307 318 259 265 247 196 205 313 285 164 165 172 190 205 205 207 214 219 224 237 253 270 285
358 2 2 353 348 349 349 351 349 340 340 343 344 341 342 347 349 339 274 314 325 321 319 324 317 313 312 313 317 319 321 323 323 323 324 324 323 321 321 321 319 320 323 322 313 311 312 312 312 314 312 308 310 312 312 312 309 307 311 323 327 323 309 280 276 286 256 251 216 199 199 225 244 213 222 245 241 241 248 238 229 228 230 239 258 275 286 293
7 12 9 358 350 347 345 344 342 334 328 332 336 336 340 350 5 348 310 319 325 321 322 321 316 317 318 318 321 322 324 328 328 328 330 330 329 328 328 330 329 328 328 322 318 316 315 315 316 315 312 311 314 320 323 317 309 308 317 329 331 318 301 261 221 228 246 237 179 211 278 278 266 268 267 263 256 253 257 252 243 240 244 262 282 295 302 305
8 10 2 354 346 342 338 333 331 325 318 320 325 331 340 352 352 317 314 317 315 310 315 317 316 319 320 321 325 328 331 333 332 333 334 334 334 334 332 331 332 331 321 320 326 324 320 322 322 316 315 313 312 320 323 315 308 310 314 316 313 309 315 285 268 273 268 272 287 293 305 295 285 274 257 258 254 252 257 256 255 257 266 282 295 304 309 312
315 330 340 341 338 334 330 326 322 316 313 313 319 330 343 348 322 314 316 316 313 311 315 318 319 320 323 327 333 335 335 336 335 335 336 337 338 337 331 330 334 333 326 328 331 321 315 318 314 315 317 309 306 314 316 311 307 306 303 299 278 258 263 267 295 311 290 299 301 292 288 292 292 262 242 254 251 247 255 258 267 278 284 292 299 303 308 312
294 296 311 324 329 328 326 322 318 314 313 313 321 335 344 318 309 314 315 317 319 318 319 320 321 324 331 336 336 336 337 336 334 335 339 340 338 337 334 333 335 333 331 331 325 313 309 300 299 310 309 304 306 310 313 314 312 301 298 297 272 264 258 260 283 290 286 294 291 262 260 283 287 260 243 249 246 248 256 262 281 290 293 299 305 309 312 313
298 292 295 309 321 324 324 322 318 316 315 316 324 336 327 304 310 316 317 320 321 321 323 325 327 331 336 334 329 332 335 334 333 336 342 340 334 335 338 333 332 332 331 332 329 323 307 291 299 307 307 308 310 312 315 316 308 294 291 287 273 273 270 269 286 291 282 283 268 247 251 260 255 245 237 228 238 270 281 285 291 295 299 308 312 313 315 315
301 294 291 302 313 321 327 325 321 319 319 321 326 328 320 313 317 320 321 321 321 323 327 330 333 332 329 326 326 330 333 335 335 335 339 338 329 331 336 329 330 333 333 335 333 322 304 301 307 312 311 313 314 314 315 312 303 295 288 286 288 283 271 264 282 310 287 264 261 254 254 261 263 245 218 223 294 312 307 297 294 297 302 307 309 311 314 315
300 294 294 301 311 323 329 327 323 322 324 326 327 326 324 324 324 323 322 321 322 325 328 331 331 326 323 324 325 329 333 335 335 334 337 338 328 328 330 326 328 333 330 328 324 318 311 307 310 315 312 311 314 315 315 311 305 298 290 296 298 284 269 251 245 303 295 259 275 269 264 274 274 239 199 285 324 323 313 302 298 300 301 302 306 311 315 316
299 297 298 305 313 322 328 327 326 326 326 327 327 325 322 322 322 321 321 322 325 327 329 331 327 321 322 325 325 329 334 335 336 336 336 333 325 325 327 325 327 327 323 322 319 316 317 308 301 307 308 308 313 314 311 308 304 297 293 298 296 278 270 255 247 266 275 269 283 276 274 275 257 226 263 317 321 318 312 305 301 302 303 305 309 313 315 316
295 295 299 307 315 321 325 327 327 326 328 329 326 321 317 319 322 323 323 325 327 329 329 328 325 322 324 327 327 330 336 337 337 337 334 328 327 327 326 324 321 319 318 320 317 316 318 298 282 297 304 306 310 309 303 300 297 294 291 297 302 292 273 264 266 266 258 257 278 288 289 205 170 309 312 307 308 313 313 309 308 310 311 310 311 312 313 313
290 296 305 314 320 323 324 327 329 332 335 332 328 325 323 325 327 327 328 328 328 329 329 328 328 327 327 328 330 331 335 337 335 335 333 327 328 326 320 317 317 317 318 318 317 316 317 299 283 293 300 302 303 301 296 292 289 289 284 279 277 268 269 281 283 266 246 241 267 293 273 258 284 298 298 301 314 318 314 311 313 315 313 311 310 310 312 314
292 302 314 320 323 325 324 327 332 336 337 336 335 334 331 331 331 331 332 331 331 331 333 333 332 332 331 332 334 332 333 336 335 333 328 323 325 321 314 315 316 317 318 317 316 314 311 302 291 293 300 305 307 303 293 287 287 287 281 269 262 265 274 272 265 275 266 256 271 282 276 280 284 271 264 309 318 313 308 308 311 313 312 311 311 312 314 319
306 314 321 323 325 326 327 328 332 336 339 340 339 336 334 335 335 336 336 335 336 338 340 339 336 336 336 335 335 334 334 336 332 327 323 321 323 321 317 317 318 318 317 316 315 313 310 304 294 297 304 307 306 300 289 285 285 285 287 289 289 289 287 276 269 277 280 271 269 273 272 270 240 200 281 312 313 308 309 312 314 315 314 313 313 315 319 322
321 325 327 327 327 328 329 331 335 340 340 340 338 336 338 340 340 341 341 340 342 344 343 341 338 338 337 334 334 333 334 332 324 323 324 323 324 324 320 320 319 317 315 313 311 309 305 298 293 300 311 312 307 307 304 299 292 290 297 299 296 293 289 286 284 279 273 269 256 242 247 242 219 254 286 295 299 304 310 316 318 317 315 314 314 317 321 324
327 331 332 330 329 331 336 340 342 342 342 342 343 344 345 347 345 345 346 345 345 344 342 341 340 338 336 335 333 332 332 329 323 324 327 326 327 326 322 320 319 316 313 310 308 304 299 294 290 288 289 292 296 302 305 302 297 294 296 296 293 291 289 289 291 272 256 274 259 241 261 271 263 275 288 291 298 305 311 316 317 315 314 313 315 319 324 326
333 335 335 334 334 339 347 348 346 347 349 349 351 350 351 352 350 348 348 347 346 345 343 341 341 339 338 337 336 334 335 333 328 327 328 329 328 326 322 320 318 315 313 311 309 305 299 297 296 284 273 276 283 287 291 295 295 293 294 293 291 292 291 289 285 265 259 288 284 262 272 287 287 297 307 307 308 311 314 315 314 313 313 314 317 323 325 323
338 338 340 344 345 349 353 353 354 356 356 357 358 356 354 352 351 349 350 349 348 347 346 345 345 345 342 340 339 339 338 334 330 329 330 330 327 325 323 321 318 316 316 314 312 309 301 299 301 295 290 291 292 293 297 297 293 292 293 293 291 291 291 288 284 278 278 290 287 276 286 298 304 313 315 312 312 313 312 312 312 312 314 317 322 324 322 318
344 346 349 354 357 357 359 1 3 1 359 2 2 357 353 352 353 353 353 354 353 351 350 351 352 350 345 342 340 339 336 332 330 329 329 328 327 324 322 321 319 319 318 315 312 310 304 301 303 301 299 301 301 303 306 303 297 297 297 297 295 290 290 290 286 284 286 286 284 289 298 307 313 316 311 307 309 309 309 310 311 312 316 321 323 322 319 320
355 357 359 3 4 4 6 7 5 4 3 3 3 1 359 358 359 358 357 358 359 358 355 354 353 351 347 342 338 336 335 331 328 328 327 326 326 325 322 321 320 319 318 314 311 310 306 302 304 304 302 305 309 312 314 311 308 307 305 302 295 282 280 287 287 284 284 282 284 294 304 312 316 311 303 304 307 307 309 310 310 314 320 322 321 319 319 321
6 7 9 10 9 10 10 8 5 5 6 6 7 8 6 3 3 4 3 2 2 0 356 352 351 349 345 341 337 334 332 329 326 325 326 325 324 323 320 318 317 316 314 311 310 309 304 300 305 308 305 310 320 322 318 316 315 312 309 304 290 275 275 282 281 280 282 284 291 302 310 314 314 307 305 308 309 309 309 309 312 319 324 322 318 318 319 319
11 13 15 14 14 15 15 11 10 11 13 14 14 12 11 9 7 8 8 4 0 358 354 350 348 346 344 340 337 334 332 329 326 324 324 322 321 320 316 314 315 313 311 310 309 308 305 304 310 314 309 313 325 324 314 314 312 303 299 295 277 264 267 269 267 274 291 302 307 311 314 315 312 309 310 310 308 308 310 312 318 323 322 316 315 317 318 319
17 19 19 17 15 19 21 20 18 17 18 18 17 15 14 11 7 7 6 2 358 355 353 349 346 345 344 340 337 335 332 329 325 323 322 321 320 318 315 314 314 311 310 310 309 311 311 310 316 321 309 308 318 319 312 311 307 289 277 269 250 249 259 267 270 281 300 314 316 315 315 314 310 309 309 308 307 311 313 317 322 322 315 314 318 318 319 321
Height
3149 3149 3149 3149 3150 3150 3151 3151 3152 3152 3152 3152 3152 3152 3152 3153 3153 3153 3153 3154 3154 3154 3154 3155 3155 3155 3155 3155 3155 3155 3155 3154 3154 3154 3154 3154 3154 3154 3154 3154 3154 3153 3153 3153 3153 3153 3153 3152 3152 3152 3152 3152 3151 3151 3151 3151 3150 3150 3150 3149 3150 3150 3149 3148 3148 3147 3146 3144 3144 3144 3143 3141 3140 3141 3140 3139 3138 3137 3136 3136 3134 3133 3133 3131 3130 3131 3129 3127
3150 3150 3150 3151 3151 3151 3152 3152 3153 3153 3153 3153 3153 3153 3153 3154 3154 3154 3154 3155 3155 3155 3155 3155 3155 3156 3156 3156 3156 3156 3155 3155 3154 3154 3154 3154 3154 3154 3154 3154 3154 3154 3154 3154 3153 3153 3153 3152 3152 3151 3151 3151 3150 3150 3150 3150 3149 3149 3149 3149 3148 3148 3148 3147 3146 3146 3145 3143 3142 3142 3141 3140 3139 3139 3139 3138 3136 3135 3133 3133 3132 3132 3132 3130 3128 3129 3128 3126
3151 3151 3151 3152 3152 3152 3153 3153 3154 3154 3154 3154 3154 3154 3154 3154 3155 3155 3155 3155 3155 3155 3155 3156 3156 3156 3156 3156 3156 3156 3156 3155 3155 3155 3155 3155 3155 3155 3154 3154 3154 3154 3154 3154 3153 3153 3152 3152 3151 3151 3150 3150 3150 3149 3149 3148 3148 3148 3148 3147 3147 3147 3146 3146 3145 3144 3143 3142 3141 3140 3140 3138 3137 3137 3137 3136 3135 3133 3131 3130 3130 3130 3129 3128 3126 3126 3126 3124
3153 3153 3153 3153 3153 3154 3154 3154 3155 3155 3155 3155 3155 3155 3155 3155 3155 3155 3155 3156 3156 3156 3156 3156 3156 3156 3157 3157 3156 3156 3156 3156 3155 3155 3155 3155 3155 3155 3155 3155 3154 3154 3154 3154 3153 3153 3152 3151 3151 3150 3149 3149 3149 3149 3148 3148 3147 3147 3147 3146 3146 3145 3145 3144 3144 3143 3142 3141 3139 3138 3138 3137 3136 3136 3135 3134 3133 3132 3129 3128 3127 3126 3126 3125 3123 3123 3124 3123
3155 3155 3155 3155 3155 3155 3155 3155 3155 3155 3155 3156 3156 3156 3156 3156 3156 3156 3156 3156 3156 3156 3157 3156 3156 3157 3157 3157 3157 3157 3156 3156 3155 3155 3155 3155 3155 3155 3155 3155 3154 3154 3154 3153 3153 3152 3151 3151 3150 3149 3149 3148 3148 3147 3147 3147 3146 3146 3146 3145 3145 3144 3144 3143 3142 3141 3141 3140 3138 3137 3136 3135 3135 3134 3133 3132 3131 3130 3128 3127 3126 3125 3124 3122 3121 3119 3119 3121
3156 3156 3156 3156 3156 3156 3156 3156 3156 3156 3156 3156 3156 3156 3156 3156 3156 3156 3156 3156 3157 3157 3157 3157 3157 3157 3157 3157 3157 3157 3156 3156 3156 3155 3155 3155 3155 3155 3154 3154 3154 3154 3153 3153 3152 3152 3151 3150 3149 3148 3148 3148 3147 3147 3146 3146 3146 3145 3145 3145 3144 3143 3142 3142 3141 3140 3139 3138 3137 3136 3135 3134 3133 3132 3132 3130 3129 3129 3127 3126 3125 3124 3122 3121 3120 3118 3116 3117
3157 3157 3157 3157 3157 3157 3157 3156 3156 3156 3156 3156 3157 3157 3157 3157 3156 3156 3156 3157 3157 3157 3157 3157 3157 3157 3157 3157 3157 3157 3157 3156 3156 3156 3155 3155 3155 3154 3154 3154 3154 3153 3153 3152 3152 3151 3150 3149 3148 3148 3147 3147 3147 3146 3146 3146 3145 3144 3144 3144 3143 3142 3141 3140 3140 3139 3138 3137 3135 3134 3133 3132 3131 3130 3129 3128 3127 3127 3125 3124 3123 3122 3121 3119 3118 3117 3115 3114
3158 3158 3158 3157 3157 3157 3157 3157 3157 3157 3157 3157 3157 3157 3157 3157 3157 3157 3157 3157 3157 3157 3157 3157 3157 3157 3157 3157 3157 3157 3157 3156 3156 3156 3155 3155 3154 3154 3154 3154 3153 3153 3152 3152 3151 3150 3150 3149 3148 3147 3147 3147 3146 3146 3145 3145 3144 3144 3143 3142 3142 3141 3140 3139 3138 3137 3136 3135 3134 3133 3132 3130 3129 3128 3127 3126 3125 3125 3123 3122 3121 3120 3119 3118 3116 3115 3114 3113
3159 3159 3158 3158 3158 3158 3158 3157 3157 3157 3157 3157 3158 3158 3157 3157 3157 3157 3157 3158 3158 3157 3157 3157 3157 3157 3157 3157 3157 3157 3157 3156 3156 3156 3155 3155 3154 3154 3154 3153 3153 3153 3152 3151 3150 3150 3149 3148 3148 3147 3147 3146 3146 3145 3145 3144 3143 3142 3142 3141 3140 3139 3139 3138 3137 3136 3135 3134 3132 3131 3130 3128 3127 3126 3125 3125 3124 3122 3121 3120 3119 3118 3116 3115 3114 3113 3112 3112
3159 3159 3159 3159 3159 3158 3158 3158 3158 3158 3158 3158 3158 3158 3158 3157 3157 3157 3158 3158 3158 3157 3157 3157 3157 3157 3157 3157 3157 3157 3157 3157 3156 3156 3155 3155 3155 3154 3154 3153 3153 3152 3151 3151 3150 3149 3149 3148 3147 3147 3146 3146 3145 3145 3144 3143 3142 3141 3141 3140 3139 3138 3137 3136 3135 3134 3133 3132 3130 3129 3129 3126 3125 3125 3123 3123 3122 3120 3118 3117 3116 3115 3114 3113 3112 3111 3110 3110
3158 3159 3159 3159 3159 3159 3158 3158 3158 3158 3158 3158 3158 3158 3158 3157 3157 3157 3158 3158 3157 3157 3157 3157 3157 3157 3157 3157 3157 3157 3157 3157 3156 3156 3155 3155 3155 3154 3153 3153 3152 3152 3151 3150 3149 3149 3148 3148 3147 3146 3146 3145 3145 3144 3143 3142 3141 3140 3139 3139 3138 3137 3136 3135 3134 3133 3131 3131 3129 3127 3128 3126 3123 3123 3121 3120 3120 3118 3116 3114 3113 3113 3112 3110 3109 3109 3108 3108
3158 3158 3159 3159 3159 3159 3159 3158 3158 3158 3158 3158 3158 3158 3157 3157 3157 3157 3157 3158 3157 3157 3157 3157 3157 3157 3157 3157 3157 3157 3157 3156 3156 3156 3155 3155 3154 3154 3153 3152 3152 3151 3150 3150 3149 3148 3148 3147 3147 3146 3145 3145 3144 3143 3142 3141 3140 3140 3138 3137 3136 3135 3134 3134 3132 3131 3130 3129 3128 3126 3125 3124 3122 3120 3119 3118 3117 3116 3114 3112 3111 3110 3109 3108 3107 3107 3106 3106
3158 3158 3159 3159 3159 3159 3159 3159 3158 3158 3158 3158 3158 3157 3157 3157 3157 3157 3157 3157 3157 3157 3157 3157 3157 3157 3157 3157 3157 3157 3157 3156 3156 3155 3155 3155 3154 3153 3153 3152 3151 3151 3150 3149 3149 3148 3148 3147 3146 3146 3145 3144 3143 3142 3142 3141 3139 3138 3138 3136 3135 3133 3132 3132 3131 3130 3129 3129 3127 3124 3123 3123 3120 3118 3117 3117 3116 3114 3112 3110 3108 3107 3107 3106 3105 3104 3104 3104
3158 3158 3159 3159 3160 3159 3159 3159 3158 3158 3158 3158 3157 3157 3157 3157 3157 3157 3157 3157 3156 3156 3156 3157 3157 3157 3156 3156 3157 3157 3156 3156 3156 3155 3155 3154 3154 3153 3152 3151 3151 3150 3150 3149 3149 3148 3147 3147 3146 3145 3144 3143 3143 3142 3141 3140 3139 3137 3136 3135 3134 3133 3131 3130 3131 3129 3128 3127 3126 3124 3122 3121 3120 3116 3114 3114 3113 3111 3110 3108 3106 3104 3104 3103 3103 3103 3102 3102
3158 3158 3159 3159 3160 3159 3159 3159 3158 3158 3157 3157 3157 3157 3157 3157 3156 3156 3156 3156 3156 3156 3156 3156 3156 3156 3156 3156 3156 3156 3156 3156 3155 3155 3155 3154 3153 3153 3152 3151 3151 3150 3149 3149 3148 3147 3147 3146 3145 3144 3144 3143 3142 3141 3140 3139 3137 3136 3135 3134 3134 3133 3131 3129 3129 3128 3126 3125 3125 3123 3120 3120 3119 3116 3113 3111 3109 3108 3107 3106 3104 3102 3102 3101 3100 3101 3100 3100
3159 3159 3159 3160 3160 3159 3159 3158 3158 3157 3157 3157 3157 3157 3157 3156 3156 3156 3156 3156 3156 3156 3156 3156 3156 3156 3156 3156 3156 3156 3156 3155 3155 3155 3154 3154 3153 3152 3152 3151 3150 3150 3149 3148 3148 3147 3146 3145 3144 3144 3143 3142 3141 3140 3139 3137 3136 3135 3134 3134 3133 3132 3130 3127 3126 3126 3125 3123 3122 3121 3119 3118 3118 3116 3113 3109 3106 3104 3104 3103 3101 3100 3100 3099 3098 3098 3098 3097
3159 3159 3160 3160 3159 3159 3158 3158 3157 3157 3157 3157 3157 3157 3156 3156 3156 3155 3155 3155 3155 3156 3155 3155 3155 3155 3155 3155 3155 3155 3155 3155 3155 3154 3154 3153 3153 3152 3151 3151 3150 3149 3148 3148 3147 3146 3145 3145 3143 3142 3141 3140 3140 3139 3138 3137 3136 3135 3134 3132 3132 3131 3129 3127 3124 3123 3123 3122 3121 3119 3116 3116 3117 3115 3112 3108 3104 3101 3101 3100 3099 3098 3098 3097 3097 3096 3096 3095
3159 3160 3160 3159 3159 3159 3158 3157 3157 3157 3157 3157 3156 3156 3155 3155 3155 3155 3154 3155 3155 3155 3155 3155 3155 3155 3155 3155 3155 3155 3155 3154 3154 3154 3153 3153 3152 3152 3151 3150 3149 3148 3147 3146 3146 3145 3144 3143 3142 3141 3140 3139 3138 3137 3137 3136 3135 3134 3132 3130 3129 3128 3127 3127 3124 3122 3121 3119 3119 3118 3114 3113 3114 3113 3110 3107 3104 3101 3099 3098 3097 3097 3096 3095 3095 3094 3094 3093
3159 3160 3160 3159 3159 3158 3158 3157 3157 3157 3157 3157 3156 3156 3155 3154 3154 3154 3154 3154 3154 3154 3154 3154 3154 3154 3154 3154 3154 3154 3154 3154 3153 3153 3152 3152 3151 3151 3150 3149 3148 3147 3146 3145 3144 3143 3142 3141 3140 3140 3139 3138 3137 3137 3136 3135 3133 3132 3130 3128 3127 3125 3124 3125 3122 3120 3120 3117 3116 3115 3112 3110 3110 3109 3107 3104 3102 3100 3098 3097 3096 3096 3095 3094 3094 3093 3093 3092
3159 3160 3159 3159 3159 3158 3158 3157 3157 3157 3157 3156 3156 3155 3154 3154 3153 3153 3153 3153 3154 3154 3154 3154 3154 3154 3154 3154 3154 3153 3153 3153 3152 3152 3151 3151 3150 3149 3149 3148 3147 3146 3145 3144 3142 3141 3141 3140 3139 3138 3138 3137 3136 3135 3134 3133 3131 3130 3128 3126 3125 3123 3121 3121 3119 3118 3118 3115 3113 3113 3110 3108 3107 3106 3103 3100 3099 3098 3097 3096 3095 3094 3094 3093 3093 3092 3092 3092
3159 3159 3159 3159 3158 3158 3158 3157 3157 3157 3156 3156 3156 3155 3154 3153 3153 3153 3153 3153 3153 3153 3153 3153 3153 3153 3153 3153 3153 3152 3152 3152 3152 3151 3150 3150 3149 3148 3147 3146 3145 3144 3143 3142 3141 3140 3139 3138 3137 3137 3136 3135 3134 3133 3132 3130 3129 3128 3126 3124 3122 3121 3119 3118 3117 3116 3116 3113 3111 3110 3107 3105 3104 3102 3099 3097 3097 3097 3096 3095 3094 3093 3093 3092 3092 3092 3091 3091
3159 3159 3159 3159 3159 3158 3158 3157 3157 3157 3156 3156 3156 3155 3154 3153 3153 3153 3153 3152 3152 3152 3152 3152 3152 3152 3152 3152 3152 3152 3151 3151 3150 3150 3149 3148 3148 3146 3146 3145 3144 3142 3141 3141 3140 3139 3138 3136 3135 3135 3134 3133 3132 3131 3130 3128 3127 3125 3124 3122 3120 3119 3117 3116 3115 3114 3113 3111 3108 3107 3103 3101 3101 3098 3095 3095 3095 3095 3094 3093 3093 3092 3092 3091 3091 3091 3090 3088
3159 3159 3159 3159 3159 3158 3158 3157 3157 3156 3156 3156 3155 3155 3154 3153 3153 3153 3152 3152 3152 3152 3152 3151 3151 3152 3152 3151 3151 3151 3150 3149 3149 3149 3148 3147 3146 3145 3144 3143 3142 3141 3140 3139 3138 3137 3136 3134 3134 3133 3132 3131 3129 3128 3127 3125 3124 3123 3122 3120 3118 3118 3116 3114 3113 3112 3111 3109 3106 3104 3100 3098 3097 3095 3093 3094 3093 3093 3093 3092 3092 3091 3091 3090 3090 3090 3088 3086
3159 3159 3159 3159 3158 3158 3158 3157 3157 3157 3156 3156 3155 3155 3154 3154 3153 3153 3152 3151 3151 3151 3151 3151 3151 3151 3151 3150 3150 3150 3149 3149 3148 3147 3147 3146 3145 3144 3143 3142 3141 3139 3138 3137 3136 3135 3134 3133 3132 3131 3130 3128 3126 3125 3125 3123 3121 3120 3119 3117 3116 3116 3115 3113 3111 3109 3108 3107 3105 3102 3098 3094 3094 3094 3093 3093 3092 3091 3091 3091 3091 3091 3090 3090 3089 3087 3084 3083
3159 3159 3159 3159 3158 3158 3158 3157 3157 3157 3156 3156 3155 3155 3154 3154 3153 3153 3152 3151 3150 3150 3150 3150 3150 3150 3150 3150 3149 3149 3148 3148 3147 3146 3146 3145 3144 3142 3141 3140 3139 3137 3136 3135 3134 3132 3131 3130 3130 3128 3127 3126 3124 3122 3122 3120 3118 3117 3117 3115 3114 3114 3113 3112 3110 3108 3105 3104 3103 3102 3099 3094 3093 3094 3092 3091 3090 3090 3089 3090 3090 3090 3089 3089 3087 3084 3082 3081
3160 3159 3159 3159 3159 3158 3158 3158 3157 3157 3157 3156 3156 3155 3155 3154 3153 3152 3151 3150 3149 3149 3149 3149 3149 3149 3149 3149 3148 3148 3147 3147 3146 3146 3144 3143 3143 3141 3140 3138 3137 3136 3134 3133 3131 3130 3129 3128 3127 3126 3124 3123 3122 3120 3120 3118 3116 3115 3114 3114 3113 3112 3111 3110 3109 3107 3104 3102 3101 3102 3101 3095 3091 3092 3091 3089 3089 3089 3088 3089 3089 3089 3089 3086 3083 3081 3080 3080
3160 3160 3160 3159 3159 3158 3158 3158 3157 3157 3157 3157 3156 3156 3155 3154 3154 3152 3151 3150 3149 3149 3149 3149 3149 3149 3149 3149 3148 3147 3147 3146 3145 3144 3143 3142 3141 3139 3138 3136 3135 3133 3133 3131 3128 3127 3127 3126 3125 3124 3122 3120 3119 3118 3117 3116 3115 3113 3112 3112 3111 3110 3109 3108 3107 3105 3102 3101 3099 3098 3099 3096 3091 3090 3090 3088 3088 3088 3088 3089 3089 3089 3087 3082 3080 3079 3079 3079
3160 3160 3160 3160 3159 3159 3158 3158 3158 3158 3158 3157 3157 3156 3155 3154 3153 3152 3152 3151 3149 3149 3149 3149 3149 3148 3148 3148 3148 3147 3146 3145 3144 3143 3142 3140 3139 3137 3136 3135 3133 3132 3131 3129 3126 3125 3124 3123 3123 3121 3120 3118 3117 3116 3115 3114 3113 3111 3110 3110 3109 3108 3107 3106 3104 3102 3101 3100 3096 3095 3096 3095 3091 3089 3089 3088 3088 3088 3088 3088 3087 3086 3083 3079 3078 3078 3077 3077
3161 3161 3160 3160 3160 3159 3159 3158 3158 3158 3158 3157 3157 3156 3155 3154 3153 3152 3152 3152 3150 3149 3149 3149 3149 3148 3148 3148 3147 3146 3146 3144 3143 3141 3140 3139 3137 3136 3134 3133 3131 3129 3129 3127 3124 3123 3122 3121 3121 3119 3118 3116 3115 3115 3114 3112 3111 3110 3109 3108 3107 3106 3105 3103 3102 3100 3100 3099 3095 3093 3094 3094 3091 3088 3088 3088 3087 3087 3086 3085 3084 3083 3081 3079 3077 3077 3076 3075
3161 3161 3161 3161 3160 3160 3159 3159 3158 3158 3158 3157 3157 3156 3155 3154 3153 3152 3153 3152 3150 3149 3149 3149 3148 3148 3147 3147 3146 3145 3144 3143 3142 3140 3139 3138 3136 3135 3133 3131 3129 3127 3126 3125 3122 3121 3120 3120 3119 3118 3116 3115 3114 3113 3112 3111 3110 3108 3107 3106 3105 3104 3102 3101 3100 3099 3100 3098 3093 3092 3093 3093 3092 3088 3087 3087 3086 3085 3085 3084 3082 3081 3079 3078 3077 3076 3075 3073
3162 3161 3161 3161 3160 3160 3159 3159 3159 3158 3158 3157 3157 3156 3154 3153 3153 3152 3152 3151 3150 3149 3149 3148 3148 3147 3146 3145 3144 3143 3142 3141 3140 3139 3138 3136 3135 3133 3131 3129 3126 3124 3123 3122 3120 3119 3119 3118 3117 3116 3115 3114 3112 3112 3111 3110 3109 3108 3107 3106 3103 3101 3100 3099 3099 3100 3100 3096 3092 3092 3093 3092 3091 3088 3086 3086 3085 3084 3084 3082 3080 3079 3078 3078 3076 3074 3073 3071
3162 3162 3161 3161 3161 3160 3160 3159 3159 3158 3158 3157 3157 3156 3154 3153 3153 3153 3152 3151 3150 3149 3149 3148 3147 3146 3145 3144 3143 3142 3141 3140 3139 3137 3136 3134 3133 3131 3129 3128 3125 3123 3121 3120 3119 3117 3116 3116 3116 3115 3114 3113 3111 3110 3110 3109 3108 3107 3106 3106 3104 3102 3100 3099 3099 3098 3097 3094 3092 3092 3092 3091 3088 3085 3084 3083 3083 3082 3081 3080 3079 3078 3077 3076 3074 3072 3070 3068
3162 3162 3162 3161 3161 3160 3160 3159 3159 3158 3158 3157 3156 3156 3154 3153 3153 3153 3153 3152 3151 3149 3148 3148 3147 3146 3145 3143 3142 3141 3140 3139 3138 3136 3135 3133 3132 3130 3128 3127 3125 3124 3122 3120 3118 3116 3114 3114 3114 3114 3113 3112 3111 3110 3109 3108 3106 3106 3105 3105 3105 3104 3103 3101 3097 3095 3093 3092 3092 3092 3091 3088 3085 3083 3082 3081 3080 3080 3079 3078 3076 3075 3074 3073 3071 3070 3067 3065
3162 3162 3162 3161 3161 3160 3160 3159 3158 3158 3157 3157 3156 3156 3155 3154 3153 3153 3152 3151 3151 3150 3148 3147 3146 3145 3144 3142 3141 3140 3139 3137 3136 3135 3133 3132 3130 3129 3127 3126 3125 3124 3122 3120 3118 3116 3115 3113 3112 3113 3112 3111 3110 3110 3109 3107 3106 3105 3104 3105 3104 3104 3105 3102 3097 3095 3093 3092 3092 3092 3090 3086 3083 3081 3080 3079 3078 3077 3076 3075 3074 3073 3071 3070 3069 3067 3065 3063
3162 3162 3162 3161 3161 3160 3159 3159 3158 3157 3157 3156 3156 3155 3155 3154 3154 3153 3152 3151 3150 3149 3148 3147 3145 3143 3142 3141 3140 3139 3138 3136 3135 3133 3132 3131 3129 3128 3127 3126 3125 3124 3123 3121 3119 3117 3116 3113 3112 3112 3112 3110 3109 3108 3108 3106 3105 3104 3103 3103 3102 3102 3102 3100 3096 3095 3093 3092 3090 3089 3087 3084 3082 3080 3078 3078 3077 3076 3075 3073 3072 3070 3068 3067 3066 3064 3062 3060
3162 3162 3161 3161 3161 3160 3159 3158 3158 3157 3156 3156 3155 3155 3155 3154 3153 3152 3151 3150 3149 3148 3147 3145 3144 3142 3141 3140 3139 3139 3137 3136 3134 3132 3131 3130 3128 3128 3127 3126 3125 3124 3123 3122 3120 3118 3115 3113 3112 3111 3110 3109 3108 3107 3107 3106 3104 3103 3102 3102 3101 3100 3100 3098 3095 3093 3093 3092 3088 3084 3084 3083 3081 3079 3077 3076 3075 3074 3073 3071 3069 3067 3065 3065 3063 3060 3058 3057
3161 3161 3161 3161 3160 3160 3159 3158 3157 3157 3156 3156 3155 3155 3154 3154 3153 3152 3151 3150 3149 3147 3146 3144 3143 3142 3141 3140 3139 3138 3137 3135 3133 3132 3131 3130 3128 3127 3127 3125 3124 3123 3122 3122 3121 3120 3116 3111 3109 3110 3108 3107 3107 3105 3105 3104 3102 3101 3100 3100 3100 3099 3098 3097 3095 3093 3092 3091 3084 3081 3082 3082 3080 3078 3076 3075 3074 3072 3070 3068 3067 3065 3064 3062 3059 3057 3056 3053
3161 3161 3160 3160 3160 3159 3158 3158 3157 3156 3156 3155 3155 3154 3154 3153 3152 3152 3150 3149 3148 3147 3146 3144 3143 3142 3141 3140 3138 3137 3136 3135 3133 3132 3130 3129 3128 3127 3126 3125 3124 3123 3122 3122 3120 3119 3117 3110 3106 3107 3107 3105 3105 3104 3102 3101 3100 3100 3099 3098 3098 3097 3096 3096 3096 3093 3092 3089 3083 3079 3079 3079 3079 3077 3075 3073 3071 3069 3067 3066 3064 3062 3060 3059 3057 3055 3053 3050
3160 3160 3160 3160 3159 3159 3158 3157 3157 3156 3156 3155 3154 3154 3153 3152 3152 3151 3150 3149 3147 3146 3145 3144 3143 3142 3141 3140 3138 3136 3135 3134 3133 3132 3130 3129 3128 3127 3126 3125 3124 3123 3122 3121 3119 3117 3117 3113 3106 3104 3105 3104 3103 3102 3100 3099 3098 3098 3097 3096 3096 3096 3095 3094 3094 3092 3091 3088 3083 3079 3077 3077 3076 3075 3074 3072 3068 3065 3064 3063 3061 3059 3058 3056 3055 3052 3049 3046
3160 3160 3159 3159 3159 3158 3158 3157 3157 3156 3155 3154 3154 3153 3153 3152 3151 3150 3149 3148 3147 3146 3145 3144 3143 3141 3140 3139 3137 3136 3135 3133 3132 3131 3130 3129 3128 3126 3125 3124 3123 3122 3121 3119 3118 3116 3115 3114 3107 3103 3103 3102 3101 3100 3098 3097 3096 3095 3095 3094 3094 3094 3093 3092 3090 3089 3089 3087 3083 3080 3077 3075 3075 3074 3072 3069 3065 3063 3061 3060 3059 3058 3056 3054 3051 3048 3045 3042
3160 3159 3159 3159 3158 3158 3157 3157 3156 3155 3154 3154 3153 3153 3152 3151 3151 3150 3148 3147 3146 3145 3145 3143 3142 3141 3140 3138 3137 3135 3134 3133 3131 3130 3129 3128 3127 3126 3125 3123 3122 3121 3119 3118 3116 3114 3113 3112 3107 3102 3101 3100 3099 3098 3097 3096 3095 3094 3093 3093 3092 3092 3092 3091 3089 3086 3086 3085 3082 3080 3077 3073 3074 3075 3070 3065 3063 3062 3060 3059 3057 3056 3054 3051 3048 3045 3041 3038
3159 3159 3159 3159 3158 3157 3156 3156 3155 3154 3154 3153 3153 3152 3151 3151 3150 3149 3148 3147 3146 3145 3144 3143 3142 3141 3139 3138 3137 3135 3133 3132 3131 3130 3129 3128 3127 3126 3124 3122 3121 3119 3118 3116 3114 3113 3111 3109 3105 3100 3099 3097 3096 3096 3094 3093 3093 3092 3092 3091 3091 3091 3091 3090 3088 3085 3084 3083 3081 3081 3076 3071 3072 3072 3067 3063 3061 3059 3058 3058 3056 3054 3051 3048 3044 3040 3037 3033
3159 3159 3159 3158 3157 3157 3156 3155 3154 3154 3153 3153 3152 3151 3151 3150 3149 3148 3147 3146 3145 3144 3143 3142 3141 3140 3139 3138 3136 3135 3133 3132 3130 3129 3129 3127 3126 3125 3123 3121 3120 3118 3116 3114 3113 3111 3109 3107 3102 3098 3096 3095 3094 3093 3092 3091 3091 3091 3090 3090 3090 3089 3088 3088 3086 3084 3082 3079 3079 3079 3075 3070 3068 3067 3065 3062 3059 3057 3056 3055 3053 3050 3046 3043 3039 3035 3031 3028
3159 3159 3158 3157 3157 3156 3155 3155 3154 3154 3153 3152 3152 3151 3150 3149 3148 3148 3147 3146 3145 3144 3143 3142 3140 3139 3138 3137 3136 3135 3133 3131 3130 3128 3128 3126 3125 3123 3122 3120 3118 3116 3115 3113 3111 3109 3108 3106 3103 3098 3095 3093 3092 3091 3091 3091 3091 3090 3089 3088 3087 3086 3085 3084 3083 3082 3079 3075 3076 3076 3071 3068 3067 3064 3061 3059 3057 3055 3054 3052 3049 3045 3041 3037 3033 3030 3027 3023
3159 3158 3158 3157 3156 3156 3155 3154 3154 3153 3153 3152 3151 3151 3150 3149 3148 3147 3146 3145 3144 3143 3142 3141 3140 3139 3138 3137 3135 3134 3133 3132 3129 3127 3126 3125 3123 3122 3120 3118 3116 3114 3113 3111 3109 3107 3105 3104 3102 3100 3098 3096 3093 3092 3092 3090 3089 3088 3087 3086 3084 3083 3082 3081 3080 3080 3077 3073 3073 3072 3068 3065 3065 3062 3058 3057 3056 3054 3052 3049 3045 3041 3037 3033 3029 3026 3023 3019
3158 3158 3157 3157 3156 3155 3155 3154 3153 3153 3152 3152 3151 3150 3149 3149 3148 3147 3146 3145 3144 3143 3142 3140 3139 3138 3137 3136 3134 3133 3132 3130 3129 3126 3125 3123 3121 3120 3118 3116 3114 3112 3110 3108 3106 3105 3102 3101 3100 3100 3098 3095 3093 3092 3091 3089 3087 3085 3084 3083 3082 3080 3079 3079 3078 3077 3075 3072 3070 3069 3067 3062 3061 3060 3056 3054 3053 3050 3047 3044 3040 3036 3032 3029 3026 3022 3018 3015
3158 3157 3157 3156 3155 3155 3154 3154 3153 3153 3152 3151 3150 3150 3149 3148 3147 3146 3146 3145 3144 3143 3141 3140 3139 3138 3136 3135 3133 3132 3130 3129 3127 3125 3123 3121 3119 3117 3116 3114 3112 3110 3108 3106 3104 3103 3100 3098 3097 3096 3094 3093 3091 3089 3089 3088 3085 3083 3082 3081 3079 3077 3076 3076 3075 3074 3073 3071 3067 3066 3065 3061 3059 3058 3054 3051 3049 3046 3043 3039 3035 3031 3028 3025 3022 3018 3014 3010
3157 3157 3156 3156 3155 3155 3154 3154 3153 3153 3152 3151 3150 3150 3149 3148 3147 3146 3145 3144 3143 3142 3141 3140 3139 3137 3136 3134 3132 3131 3129 3127 3125 3123 3121 3119 3118 3115 3113 3111 3109 3107 3106 3104 3102 3101 3098 3095 3094 3093 3091 3090 3089 3087 3086 3085 3083 3081 3080 3079 3077 3076 3074 3074 3073 3072 3072 3070 3066 3064 3063 3061 3059 3056 3053 3049 3047 3043 3039 3035 3031 3027 3025 3022 3017 3013 3009 3006
3157 3157 3156 3156 3155 3155 3154 3154 3153 3153 3152 3151 3151 3150 3149 3148 3147 3146 3145 3144 3143 3142 3141 3140 3138 3137 3135 3134 3132 3130 3128 3126 3123 3122 3120 3118 3116 3113 3111 3108 3107 3105 3104 3102 3100 3099 3097 3093 3092 3090 3088 3087 3087 3085 3083 3082 3080 3079 3078 3077 3075 3074 3073 3072 3072 3071 3069 3067 3065 3063 3061 3060 3058 3055 3051 3048 3045 3040 3036 3032 3028 3025 3022 3017 3012 3008 3005 3002
3157 3157 3156 3156 3156 3155 3154 3154 3153 3153 3152 3152 3151 3150 3149 3148 3148 3147 3146 3144 3143 3142 3141 3139 3138 3137 3135 3134 3132 3130 3128 3126 3123 3121 3119 3116 3114 3112 3109 3106 3105 3103 3102 3100 3098 3097 3095 3092 3091 3089 3086 3084 3084 3083 3081 3079 3078 3076 3075 3075 3074 3073 3072 3072 3070 3069 3067 3065 3064 3062 3059 3057 3056 3053 3049 3045 3041 3036 3032 3028 3024 3022 3018 3012 3008 3005 3002 2998
3157 3157 3157 3156 3156 3155 3155 3154 3154 3153 3153 3152 3151 3150 3150 3149 3148 3147 3146 3145 3143 3142 3140 3139 3138 3137 3135 3133 3131 3129 3127 3125 3123 3120 3118 3115 3112 3111 3108 3105 3104 3102 3100 3098 3096 3095 3094 3091 3090 3088 3084 3082 3082 3081 3079 3078 3076 3074 3073 3073 3072 3071 3071 3070 3069 3068 3066 3063 3061 3059 3057 3054 3052 3048 3044 3041 3036 3032 3028 3024 3021 3018 3013 3008 3004 3001 2998 2993
3158 3157 3157 3157 3156 3156 3155 3155 3154 3154 3153 3152 3152 3151 3150 3149 3148 3147 3146 3145 3143 3142 3141 3139 3137 3136 3134 3132 3130 3128 3126 3124 3121 3119 3117 3114 3111 3109 3107 3104 3102 3100 3098 3097 3095 3094 3092 3090 3089 3088 3084 3081 3081 3080 3078 3076 3074 3073 3072 3071 3071 3070 3069 3068 3067 3067 3066 3063 3060 3056 3054 3051 3047 3043 3039 3035 3032 3028 3024 3021 3019 3014 3008 3004 3002 2999 2994 2990